Weather History for Louisburg, NC

Change the Weather History Date:

Saturday, October 6, 2012

  Actual Average (KRDU) Record (KRDU)
Temperature  
Mean Temperature 74 °F 64 °F  
Max Temperature 80 °F 76 °F 98 °F (1954)
Min Temperature 64 °F 53 °F 35 °F (1965)
Degree Days  
Heating Degree Days 0 3  
Month to date heating degree days 16  
Since 1 July heating degree days 37  
Cooling Degree Days 9 3  
Month to date cooling degree days 19  
Year to date cooling degree days 1687  
Growing Degree Days 24 (Base 50)    
Moisture  
Dew Point 63 °F    
Average Humidity 70    
Maximum Humidity 100    
Minimum Humidity 45    
Precipitation  
Precipitation 0.00 in 0.11 in 1.84 in (1899)
Month to date precipitation 0.67  
Year to date precipitation 34.57  
Sea Level Pressure  
Sea Level Pressure 29.95 in    
Wind  
Wind Speed 2 mph (WSW)    
Max Wind Speed 8 mph    
Max Gust Speed -    
Visibility 9 miles    
Events      
T = Trace of Precipitation, MM = Missing Value Source: NWS Daily Summary

Daily Weather History Graph

Daily Weather History Graph

Search for Another Location

Airport:

Trip Planner

Search our weather history database for the weather conditions in past years. The results will help you decide how hot, cold, wet, or windy it might be!

Date:

Astronomy

Oct. 06, 2012 Rise Set
Actual Time 7:12 AM EDT 6:49 PM EDT
Civil Twilight 6:47 AM EDT 7:14 PM EDT
Nautical Twilight 6:17 AM EDT 7:44 PM EDT
Astronomical Twilight 5:47 AM EDT 8:14 PM EDT
Moon 11:11 PM EDT (10/6) 12:57 PM EDT (10/6)
Length of Visible Light 12h 27m
Length of Day
11h 36m
Waning Gibbous, 65% of the Moon is Illuminated
Oct 6
Waning Gibbous
Oct 8
Last Quarter
Oct 15
New
Oct 21
First Quarter
Oct 29
Full

Hourly Weather History & Observations

Time (EDT) Temp. Heat Index Dew Point Humidity Pressure Visibility Wind Dir Wind Speed Gust Speed Precip Events Conditions
12:35 AM - - - N/A% 30.03 in 7.0 mi Calm Calm - N/A   Clear
7:55 AM - - - N/A% 29.98 in 7.0 mi Calm Calm - N/A   Scattered Clouds
8:15 AM - - - N/A% 29.98 in 7.0 mi Calm Calm - N/A   Scattered Clouds
8:35 AM - - - N/A% 29.98 in 7.0 mi Calm Calm - N/A   Clear
8:55 AM - - - N/A% 29.98 in 10.0 mi Calm Calm - N/A   Clear
9:15 AM 68.0 °F - 68.0 °F 100% 29.98 in 7.0 mi Calm Calm - N/A   Clear
9:35 AM 69.8 °F - 69.8 °F 100% 29.98 in 10.0 mi Calm Calm - N/A   Clear
9:55 AM 69.8 °F - 69.8 °F 100% 29.98 in 10.0 mi SW 5.8 mph - N/A   Clear
10:15 AM 71.6 °F - 71.6 °F 100% 29.98 in 10.0 mi SW 5.8 mph - N/A   Clear
10:35 AM 71.6 °F - 62.6 °F 73% 29.97 in 10.0 mi SW 3.5 mph - N/A   Clear
10:55 AM 73.4 °F - 62.6 °F 69% 29.97 in 10.0 mi SSW 3.5 mph - N/A   Clear
11:15 AM 73.4 °F - 62.6 °F 69% 29.96 in 10.0 mi Calm Calm - N/A   Clear
11:35 AM 77.0 °F - 62.6 °F 61% 29.95 in 10.0 mi SW 4.6 mph - N/A   Clear
11:55 AM 77.0 °F - 60.8 °F 57% 29.95 in 7.0 mi SW 5.8 mph - N/A   Clear
12:15 PM 78.8 °F - 59.0 °F 51% 29.94 in 10.0 mi SW 5.8 mph - N/A   Clear
12:35 PM 78.8 °F - 59.0 °F 51% 29.93 in 10.0 mi SW 5.8 mph - N/A   Clear
12:55 PM 78.8 °F - 59.0 °F 51% 29.93 in 7.0 mi SSW 3.5 mph - N/A   Clear
1:15 PM 78.8 °F - 57.2 °F 47% 29.92 in 10.0 mi West 6.9 mph - N/A   Clear
1:35 PM 80.6 °F 81.1 °F 59.0 °F 48% 29.92 in 10.0 mi West 8.1 mph - N/A   Clear
1:55 PM 80.6 °F 80.8 °F 57.2 °F 45% 29.91 in 10.0 mi WNW 4.6 mph - N/A   Clear
2:15 PM 80.6 °F 80.8 °F 57.2 °F 45% 29.90 in 10.0 mi SW 3.5 mph - N/A   Clear
2:35 PM 80.6 °F 80.8 °F 57.2 °F 45% 29.90 in 10.0 mi SSW 5.8 mph - N/A   Clear
2:55 PM 80.6 °F 81.1 °F 59.0 °F 48% 29.91 in 10.0 mi WSW 4.6 mph - N/A   Clear
3:15 PM 80.6 °F 81.1 °F 59.0 °F 48% 29.90 in 10.0 mi West 3.5 mph - N/A   Clear
3:35 PM 80.6 °F 81.1 °F 59.0 °F 48% 29.90 in 10.0 mi WSW 4.6 mph - N/A   Scattered Clouds
3:55 PM 80.6 °F 81.1 °F 59.0 °F 48% 29.90 in 10.0 mi NW 3.5 mph - N/A   Scattered Clouds
4:15 PM 78.8 °F - 60.8 °F 54% 29.90 in 10.0 mi West 3.5 mph - N/A   Mostly Cloudy
4:35 PM 78.8 °F - 60.8 °F 54% 29.90 in 10.0 mi Calm Calm - N/A   Overcast
4:55 PM 78.8 °F - 60.8 °F 54% 29.90 in 10.0 mi West 3.5 mph - N/A   Mostly Cloudy
5:15 PM 77.0 °F - 60.8 °F 57% 29.90 in 10.0 mi Calm Calm - N/A   Mostly Cloudy
5:35 PM 75.2 °F - 66.2 °F 73% 29.90 in 10.0 mi Calm Calm - N/A   Scattered Clouds
5:55 PM 73.4 °F - 68.0 °F 83% 29.91 in 10.0 mi Calm Calm - N/A   Mostly Cloudy
6:15 PM 73.4 °F - 69.8 °F 88% 29.91 in 10.0 mi Calm Calm - N/A   Mostly Cloudy
6:35 PM 69.8 °F - 69.8 °F 100% 29.92 in 7.0 mi Calm Calm - N/A   Scattered Clouds
7:15 PM - - - N/A% 29.93 in 7.0 mi Calm Calm - N/A   Clear
7:35 PM - - - N/A% 29.94 in 7.0 mi Calm Calm - N/A   Clear
7:55 PM - - - N/A% 29.95 in 10.0 mi Calm Calm - N/A   Mostly Cloudy
8:15 PM - - - N/A% 29.95 in 10.0 mi Calm Calm - N/A   Overcast
8:35 PM 69.8 °F - 69.8 °F 100% 29.96 in 10.0 mi NNW 3.5 mph - N/A   Mostly Cloudy
8:55 PM - - - N/A% 29.97 in 10.0 mi Calm Calm - N/A   Scattered Clouds
9:15 PM 69.8 °F - 69.8 °F 100% 29.97 in 10.0 mi Calm Calm - N/A   Mostly Cloudy
9:35 PM 69.8 °F - 69.8 °F 100% 29.97 in 10.0 mi Calm Calm - N/A   Mostly Cloudy
9:55 PM 68.0 °F - 68.0 °F 100% 29.98 in 10.0 mi Calm Calm - N/A   Mostly Cloudy
10:15 PM 68.0 °F - 68.0 °F 100% 29.97 in 10.0 mi North 3.5 mph - N/A   Scattered Clouds
10:35 PM - - - N/A% 29.98 in 10.0 mi Calm Calm - N/A   Mostly Cloudy
10:55 PM - - - N/A% 29.98 in 10.0 mi Calm Calm - N/A   Mostly Cloudy
11:15 PM - - - N/A% 29.99 in 10.0 mi Calm Calm - N/A   Scattered Clouds
11:35 PM 64.4 °F - 64.4 °F 100% 29.98 in 10.0 mi Calm Calm - N/A   Mostly Cloudy